Home   Weather   USA   St. Louis   Past weeks
Flag for USA

Past Weather in St. Louis, Missouri, USA — Yesterday and Last 2 Weeks

Currently: 64 °F. Passing clouds. (Weather station: Lambert-St. Louis International Airport, USA). See more current weather

Past Weather in St. Louis — Graph

°F

St. Louis Temperature Yesterday

Maximum temperature yesterday: 73 °F (at 11:51 am)
Minimum temperature yesterday: 58 °F (at 10:51 pm)
Average temperature yesterday: 66 °F

High & Low Weather Summary for the Past Weeks

 TemperatureHumidityPressure
High89 °F (May 12, 7:51 pm)94% (May 21, 5:32 am)30.34 "Hg (May 21, 5:32 am)
Low50 °F (May 23, 5:51 am)24% (May 16, 12:51 pm)29.44 "Hg (May 20, 2:51 am)
Average70 °F66%29.89 "Hg
* Reported May 12 7:51 pm — May 27 6:51 pm, St. Louis. Weather by CustomWeather, © 2022

Note: Actual official high and low records may vary slightly from our data, if they occured in-between our weather recording intervals... More about our weather records

St. Louis Weather History for the Previous 24 Hours

Scroll right to see more
 ConditionsComfort  
Time TempWeatherWind HumidityBarometerVisibility
6:51 pm
Fri, May 27
67 °FScattered clouds.7 mph66%29.92 "Hg10 mi
5:51 pm65 °FBroken clouds.7 mph70%29.93 "Hg10 mi
4:51 pm64 °FMore clouds than sun.13 mph73%29.91 "Hg10 mi
3:51 pm64 °FMostly cloudy.13 mph75%29.91 "Hg10 mi
2:51 pm63 °FOvercast.13 mph75%29.91 "Hg10 mi
2:24 pm63 °FOvercast.12 mph75%29.92 "Hg10 mi
1:51 pm62 °FOvercast.14 mph78%29.91 "Hg10 mi
12:51 pm63 °FOvercast.14 mph78%29.90 "Hg10 mi
12:23 pm62 °FOvercast.15 mph78%29.91 "Hg10 mi
11:51 am61 °FOvercast.15 mph81%29.89 "Hg10 mi
10:51 am59 °FLow clouds.13 mph87%29.89 "Hg10 mi
9:51 am58 °FLight rain. Low clouds.14 mph90%29.87 "Hg8 mi
9:28 am58 °FLight rain. Fog.13 mph90%29.87 "Hg5 mi
9:11 am58 °FLight rain. Fog.13 mph90%29.87 "Hg3 mi
8:51 am58 °FLow clouds.13 mph90%29.86 "Hg8 mi
7:51 am58 °FDrizzle. Fog.13 mph90%29.83 "Hg6 mi
6:51 am59 °FLight rain. Low clouds.8 mph87%29.82 "Hg10 mi
6:03 am59 °FOvercast.12 mph87%29.81 "Hg10 mi
5:19 am60 °FLow clouds.14 mph83%29.79 "Hg10 mi
3:51 am60 °FLow clouds.7 mph86%29.75 "Hg10 mi
2:51 am59 °FMostly cloudy.10 mph87%29.74 "Hg10 mi
2:21 am59 °FPassing clouds.8 mph87%29.76 "Hg10 mi
2:02 am59 °FPartly cloudy.8 mph87%29.76 "Hg10 mi
1:51 am59 °FOvercast.8 mph87%29.74 "Hg10 mi
12:51 am59 °FOvercast.5 mph87%29.75 "Hg10 mi
11:51 pm
Thu, May 26
59 °FPassing clouds.5 mph87%29.76 "Hg10 mi
10:51 pm58 °FPassing clouds.6 mph90%29.75 "Hg10 mi
9:51 pm59 °FPartly cloudy.6 mph87%29.75 "Hg10 mi
9:36 pm59 °FPartly cloudy.8 mph87%29.76 "Hg10 mi
9:02 pm60 °FPassing clouds.8 mph83%29.76 "Hg10 mi
8:51 pm60 °FPartly cloudy.8 mph80%29.74 "Hg10 mi
Weather by CustomWeather, © 2022

See weather overview